MAS7716 WIII-WMKK

Flight info

Callsign MAS7716
Flight time N/A
Altitude 38000
Route DOLTA2A/07L DOLTA A585 PKU/N0481F390 N633 SALAX SALAX1JXSULDIXILS/32R
Aircraft A388/J-SADE2E3FGHIJ3J4J5M1RWXY/LB1D1

Departure

Time N/A
Airport Soekarno-Hatta International Airport (WIII)

Arrival

Time 2026-05-06 15:22
Airport Kuala Lumpur International Airport (WMKK)
Time Latitude Longitude Altitude Speed Heading
2026-05-06 15:22 2.76051 101.71057 66 ft 15 kts 158°
2026-05-06 15:22 2.75954 101.71115 65 ft 18 kts 146°
2026-05-06 15:22 2.75844 101.71189 66 ft 20 kts 146°
2026-05-06 15:23 2.75721 101.71272 68 ft 23 kts 146°
2026-05-06 15:23 2.75582 101.71365 69 ft 25 kts 146°
2026-05-06 15:23 2.75439 101.71461 68 ft 26 kts 146°
2026-05-06 15:23 2.75287 101.71563 72 ft 27 kts 146°
2026-05-06 15:24 2.75130 101.71668 84 ft 27 kts 146°
2026-05-06 15:24 2.74972 101.71773 85 ft 27 kts 146°
2026-05-06 15:24 2.74815 101.71878 86 ft 27 kts 146°
2026-05-06 15:24 2.74727 101.71938 88 ft 13 kts 146°
2026-05-06 15:25 2.74695 101.71951 85 ft 5 kts 195°
2026-05-06 15:25 2.74647 101.71914 67 ft 13 kts 232°
2026-05-06 15:25 2.74628 101.71885 75 ft 0 kts 238°
2026-05-06 15:27 2.74628 101.71884 75 ft 1 kts 238°
2026-05-06 15:27 2.74609 101.71856 69 ft 8 kts 237°
2026-05-06 15:27 2.74583 101.71815 68 ft 12 kts 237°
2026-05-06 15:27 2.74504 101.71699 69 ft 18 kts 236°
2026-05-06 15:28 2.74481 101.71666 73 ft 0 kts 236°
2026-05-06 15:36 2.74480 101.71665 68 ft 2 kts 236°
2026-05-06 15:36 2.74470 101.71649 68 ft 3 kts 236°
2026-05-06 15:36 2.74465 101.71637 68 ft 1 kts 279°
2026-05-06 15:36 2.74471 101.71625 72 ft 4 kts 304°
2026-05-06 15:37 2.74498 101.71597 72 ft 7 kts 321°
2026-05-06 15:37 2.74507 101.71589 72 ft 2 kts 323°
2026-05-06 15:37 2.74514 101.71585 78 ft 2 kts 323°
2026-05-06 15:37 2.74518 101.71581 78 ft 0 kts 324°